When you browse on this site, cookies collect data to enhance your experience and personalize the content and advertising you see.
Visit our Privacy Policy to learn more. By continuing to use the site, you agree to this use of cookies and data.
  • In Lithuania
  • List of Countries
  • For 7 days
  • Water Temperature
  • Weather Map
  • Weather Widgets
  • user-avatar
    Login

    Hourly Weather Ovcharovka

    Today, 31 May, Sunday

    Time Temperature Precipitation Wind Pressure Humidity
    00:00 +13°C° 0 mm 2 mps 737 mmHg 95%
    01:00 +13°C° 0 mm 2 mps 737 mmHg 95%
    02:00 +12°C° 0 mm 2 mps 737 mmHg 95%
    03:00 +12°C° 0 mm 2 mps 737 mmHg 95%
    04:00 +12°C° 0 mm 2 mps 737 mmHg 95%
    05:00 +12°C° 0 mm 3 mps 736 mmHg 94%
    06:00 +12°C° 0 mm 3 mps 736 mmHg 93%
    07:00 +13°C° 0.1 mm 3 mps 736 mmHg 89%
    08:00 +14°C° 0.1 mm 3 mps 736 mmHg 85%
    09:00 +17°C° 0 mm 3 mps 736 mmHg 80%
    10:00 +17°C° 1 mm 3 mps 736 mmHg 79%
    11:00 +18°C° 1 mm 4 mps 736 mmHg 78%
    12:00 +18°C° 1 mm 4 mps 736 mmHg 77%
    13:00 +17°C° 1.7 mm 5 mps 736 mmHg 78%
    14:00 +17°C° 1.7 mm 5 mps 736 mmHg 80%
    15:00 +16°C° 1.7 mm 6 mps 736 mmHg 82%
    16:00 +15°C° 1.2 mm 5 mps 736 mmHg 86%
    17:00 +13°C° 1.2 mm 5 mps 736 mmHg 90%
    18:00 +12°C° 1.2 mm 5 mps 736 mmHg 93%
    19:00 +10°C° 0.5 mm 5 mps 736 mmHg 93%
    20:00 +10°C° 0.5 mm 5 mps 736 mmHg 93%
    21:00 +9°C° 0.5 mm 5 mps 737 mmHg 93%
    22:00 +10°C° 0.1 mm 4 mps 736 mmHg 93%
    23:00 +8°C° 0.1 mm 4 mps 736 mmHg 93%

    Tomorrow, 1 June, Monday

    Time Temperature Precipitation Wind Pressure Humidity
    00:00 +8°C° 0.1 mm 4 mps 736 mmHg 93%
    01:00 +8°C° 0.7 mm 4 mps 736 mmHg 93%
    02:00 +8°C° 0.7 mm 4 mps 736 mmHg 94%
    03:00 +8°C° 0.7 mm 5 mps 736 mmHg 94%
    04:00 +8°C° 1.1 mm 5 mps 736 mmHg 95%
    05:00 +7°C° 1.1 mm 5 mps 736 mmHg 95%
    06:00 +7°C° 1.1 mm 5 mps 736 mmHg 95%
    07:00 +7°C° 0.5 mm 5 mps 736 mmHg 95%
    08:00 +7°C° 0.5 mm 5 mps 736 mmHg 95%
    09:00 +8°C° 0.5 mm 5 mps 737 mmHg 95%
    10:00 +8°C° 0.3 mm 5 mps 737 mmHg 95%
    11:00 +8°C° 0.3 mm 5 mps 737 mmHg 94%
    12:00 +9°C° 0.3 mm 5 mps 737 mmHg 94%
    13:00 +10°C° 0.1 mm 5 mps 737 mmHg 93%
    14:00 +11°C° 0.1 mm 6 mps 737 mmHg 91%
    15:00 +13°C° 0.1 mm 6 mps 737 mmHg 89%
    16:00 +13°C° 0.2 mm 6 mps 737 mmHg 89%
    17:00 +13°C° 0.2 mm 6 mps 737 mmHg 89%
    18:00 +13°C° 0.2 mm 6 mps 737 mmHg 89%
    19:00 +13°C° 0.6 mm 6 mps 737 mmHg 90%
    20:00 +13°C° 0.6 mm 6 mps 738 mmHg 92%
    21:00 +11°C° 0.6 mm 7 mps 738 mmHg 93%
    22:00 +11°C° 1.1 mm 6 mps 737 mmHg 94%
    23:00 +11°C° 1.1 mm 6 mps 737 mmHg 95%

    Day after tomorrow, 2 June, Tuesday

    Time Temperature Precipitation Wind Pressure Humidity
    00:00 +11°C° 1.1 mm 6 mps 737 mmHg 96%
    01:00 +11°C° 0.3 mm 6 mps 737 mmHg 97%
    02:00 +11°C° 0.3 mm 6 mps 737 mmHg 97%
    03:00 +10°C° 0.3 mm 6 mps 737 mmHg 97%
    04:00 +11°C° 0.2 mm 6 mps 737 mmHg 97%
    05:00 +11°C° 0.2 mm 6 mps 737 mmHg 97%
    06:00 +11°C° 0.2 mm 6 mps 736 mmHg 96%
    07:00 +13°C° 0.3 mm 6 mps 737 mmHg 94%
    08:00 +13°C° 0.3 mm 6 mps 737 mmHg 91%
    09:00 +14°C° 0.3 mm 6 mps 737 mmHg 88%
    10:00 +15°C° 0.4 mm 6 mps 737 mmHg 87%
    11:00 +15°C° 0.4 mm 5 mps 738 mmHg 86%
    12:00 +16°C° 0.4 mm 5 mps 738 mmHg 86%
    13:00 +16°C° 1.4 mm 5 mps 738 mmHg 85%
    14:00 +17°C° 1.4 mm 5 mps 738 mmHg 84%
    15:00 +17°C° 1.4 mm 5 mps 738 mmHg 83%
    16:00 +18°C° 1.5 mm 4 mps 738 mmHg 84%
    17:00 +17°C° 1.5 mm 4 mps 738 mmHg 84%
    18:00 +17°C° 1.5 mm 3 mps 737 mmHg 85%
    19:00 +16°C° 0.6 mm 3 mps 738 mmHg 87%
    20:00 +15°C° 0.6 mm 2 mps 738 mmHg 90%
    21:00 +13°C° 0.6 mm 2 mps 738 mmHg 93%
    22:00 +13°C° 0 mm 2 mps 738 mmHg 93%
    23:00 +12°C° 0 mm 2 mps 738 mmHg 94%

    3 June, Wednesday

    Time Temperature Precipitation Wind Pressure Humidity
    00:00 +10°C° 0 mm 2 mps 738 mmHg 94%
    01:00 +11°C° 0 mm 1 mps 738 mmHg 94%
    02:00 +11°C° 0 mm 1 mps 738 mmHg 93%
    03:00 +10°C° 0 mm 1 mps 738 mmHg 93%
    04:00 +11°C° 0 mm 1 mps 739 mmHg 93%
    05:00 +11°C° 0 mm 1 mps 739 mmHg 92%
    06:00 +12°C° 0 mm 1 mps 739 mmHg 91%
    07:00 +13°C° 0 mm 1 mps 739 mmHg 88%
    08:00 +14°C° 0 mm 1 mps 739 mmHg 86%
    09:00 +15°C° 0 mm 2 mps 739 mmHg 83%
    10:00 +16°C° 0 mm 2 mps 739 mmHg 80%
    11:00 +17°C° 0 mm 2 mps 739 mmHg 78%
    12:00 +18°C° 0 mm 2 mps 739 mmHg 75%
    13:00 +18°C° 0 mm 3 mps 738 mmHg 76%
    14:00 +18°C° 0 mm 3 mps 738 mmHg 78%
    15:00 +18°C° 0 mm 4 mps 738 mmHg 79%
    16:00 +18°C° 0 mm 4 mps 737 mmHg 81%
    17:00 +18°C° 0 mm 4 mps 737 mmHg 83%
    18:00 +18°C° 0 mm 4 mps 737 mmHg 84%
    19:00 +17°C° 1 mm 4 mps 736 mmHg 87%
    20:00 +16°C° 1 mm 5 mps 736 mmHg 90%
    21:00 +15°C° 1 mm 5 mps 736 mmHg 93%
    22:00 +15°C° 0.8 mm 4 mps 736 mmHg 94%
    23:00 +14°C° 0.8 mm 3 mps 735 mmHg 95%

    4 June, Thursday

    Time Temperature Precipitation Wind Pressure Humidity
    00:00 +15°C° 0.8 mm 2 mps 735 mmHg 95%
    01:00 +14°C° 0.6 mm 3 mps 735 mmHg 96%
    02:00 +14°C° 0.6 mm 3 mps 735 mmHg 96%
    03:00 +14°C° 0.6 mm 4 mps 735 mmHg 97%
    04:00 +14°C° 0.7 mm 4 mps 735 mmHg 97%
    05:00 +14°C° 0.7 mm 4 mps 735 mmHg 97%
    06:00 +14°C° 0.7 mm 3 mps 735 mmHg 96%
    07:00 +14°C° 0.3 mm 3 mps 735 mmHg 95%
    08:00 +14°C° 0.3 mm 3 mps 735 mmHg 94%
    09:00 +14°C° 0.3 mm 3 mps 736 mmHg 92%
    10:00 +16°C° 0.1 mm 3 mps 736 mmHg 88%
    11:00 +17°C° 0.1 mm 3 mps 736 mmHg 83%
    12:00 +18°C° 0.1 mm 3 mps 736 mmHg 79%
    13:00 +18°C° 0.3 mm 4 mps 736 mmHg 77%
    14:00 +19°C° 0.3 mm 4 mps 736 mmHg 75%
    15:00 +19°C° 0.3 mm 4 mps 736 mmHg 73%
    16:00 +19°C° 0.2 mm 4 mps 737 mmHg 75%
    17:00 +19°C° 0.2 mm 4 mps 737 mmHg 76%
    18:00 +18°C° 0.2 mm 4 mps 737 mmHg 78%
    19:00 +17°C° 0 mm 4 mps 737 mmHg 82%
    20:00 +16°C° 0 mm 3 mps 737 mmHg 86%
    21:00 +13°C° 0 mm 3 mps 737 mmHg 90%
    22:00 +13°C° 0 mm 3 mps 737 mmHg 91%
    23:00 +12°C° 0 mm 3 mps 738 mmHg 92%

    5 June, Friday

    Time Temperature Precipitation Wind Pressure Humidity
    00:00 +11°C° 0 mm 3 mps 738 mmHg 92%
    01:00 +11°C° 0 mm 3 mps 738 mmHg 93%
    02:00 +11°C° 0 mm 3 mps 738 mmHg 94%
    03:00 +10°C° 0 mm 3 mps 738 mmHg 95%
    04:00 +11°C° 0 mm 3 mps 738 mmHg 93%
    05:00 +12°C° 0 mm 3 mps 738 mmHg 92%
    06:00 +12°C° 0 mm 4 mps 738 mmHg 91%
    07:00 +14°C° 0.2 mm 4 mps 738 mmHg 87%
    08:00 +15°C° 0.2 mm 5 mps 738 mmHg 83%
    09:00 +16°C° 0.2 mm 5 mps 738 mmHg 79%
    10:00 +17°C° 0.8 mm 5 mps 738 mmHg 76%
    11:00 +19°C° 0.8 mm 6 mps 738 mmHg 74%
    12:00 +19°C° 0.8 mm 6 mps 738 mmHg 71%
    13:00 +19°C° 0.6 mm 6 mps 738 mmHg 71%
    14:00 +20°C° 0.6 mm 6 mps 737 mmHg 71%
    15:00 +20°C° 0.6 mm 6 mps 737 mmHg 71%
    16:00 +19°C° 0.3 mm 5 mps 737 mmHg 75%
    17:00 +19°C° 0.3 mm 5 mps 737 mmHg 78%
    18:00 +17°C° 0.3 mm 5 mps 737 mmHg 81%
    19:00 +16°C° 0.2 mm 5 mps 737 mmHg 85%
    20:00 +15°C° 0.2 mm 5 mps 737 mmHg 88%
    21:00 +14°C° 0.2 mm 6 mps 736 mmHg 91%
    22:00 +14°C° 0.7 mm 6 mps 736 mmHg 93%
    23:00 +14°C° 0.7 mm 6 mps 736 mmHg 94%
    Show more